Погода в Цапельке

Россия / Псковская область     58°02′56″N   28°56′35″E
темп.,
°C
ветер,
м/с
пор.,
м/с
влажн.,
%
обл.,
%
осадки,
мм/ч
давл.,
гПа
погр.,
м
9 мая, вс
вс900:00+1зсз310905 0.0 1012224
03:000зсз312844 0.0 1014314
06:000зсз310891 0.0 1016258
09:00+6зсз36550 0.0 1017793
12:00+10з474564 0.0 10181862
15:00+12з454094 0.0 10192122
18:00+12з243915 0.0 10201855
21:00+7ю3106798 0.0 1021242
10 мая, пн
пн1000:00+5ю3106998 0.0 1021235
03:00+6ююз4126999 0.0 1021557
06:00+6ю51577100 0.4 1020703
09:00+10ююз5116510 0.4 1021580
12:00+16ююз585481 0.0 1021995
15:00+19ююз585069 0.0 10221419
18:00+19ююз485649 0.0 10221490
21:00+14ю310785 0.0 1023322
11 мая, вт
вт1100:00+10ю31391100 0.0 1024343
03:00+9ю31194100 0.0 1025271
06:00+9ю311895 0.0 1026296
09:00+14ю48605 0.0 1026559
12:00+19ю474569 0.0 10261169
15:00+21ююв574148 0.0 10251338
18:00+20ююв465393 0.0 10251151
21:00+14юв238076 0.0 102450
12 мая, ср
ср1200:00+11юв26896 0.0 1025102
03:00+9юв23855 0.0 102544
06:00+9вюв23805 0.0 102557
09:00+15вюв34601 0.0 1025373
12:00+20вюв45485 0.0 1023947
15:00+22в57456 0.0 10211692
18:00+21в3856100 0.0 10201198
21:00+15вюв399374 0.8 1020335
13 мая, чт
чт1300:00+12вюв2109727 0.0 1020312
03:00+11в269824 0.0 1019179
06:00+11всв3998100 0.0 1017301
09:00+13вюв3998100 4.7 1015634
12:00+14вюв4983100 0.8 10141073
15:00+12юв498896 2.8 1014973
18:00+14ююв5107310 0.9 10131423
21:00+10юв38852 1.0 1014209